Location: Betpouey
(42.8833°N, 0.0333°E)
Time: 21:27:24
(UTC+00:00)

Cosmos 1515 Rocket - Pass Details

Date: 01 December 2020
Orbit: 605 x 631 km, 82.5° (Epoch: 19 January)

Event Time Altitude Azimuth Distance (km) Brightness Sun altitude
Rises 17:12:59 0° 164° (SSE) 2,867 7.1 -8.5°
Reaches altitude 10° 17:15:20 10° 155° (SSE) 1,972 6.1 -8.9°
Maximum altitude 17:19:15 34° 91° (E) 1,035 4.2 -9.5°
Drops below altitude 10° 17:23:15 10° 27° (NNE) 2,001 5.7 -10.2°
Enters shadow 17:25:11 - 19° (NNE) 2,738 6.5 -10.6°
